Location: Bidart
(43.4376°N, 1.5913°W)
Time: 07:25:03
(UTC+00:00)

Cosmos 1766 - Pass Details

Date: 19 May 2025
Orbit: 443 x 457 km, 82.5° (Epoch: 18 June)

Event Time Altitude Azimuth Distance (km) Brightness Sun altitude
Rises 23:02:42 0° 353° (N) 2,457 8.0 -25.1°
Reaches altitude 10° 23:04:47 10° 354° (N) 1,579 6.7 -25.2°
Enters shadow 23:06:57 36° 1° (N) 725 4.4 -25.3°
